Regional Weather Roundup
Issued by NWS

Home | Current Version | Previous Version | Graphics & Text | Print | Product List | Glossary On
Versions: 1 2 3 4 5 6 7 8 9 10 11 12 13 14 15 16 17 18 19 20 21 22 23 24 25 26 27 28 29 30 31 32 33 34 35 36 37 38 39 40 41 42 43 44 45 46 47 48 49 50
000
ASUS43 KLOT 290608
RWRIL

ILLINOIS REGIONAL WEATHER ROUNDUP
NATIONAL WEATHER SERVICE CHICAGO/ROMEOVILLE IL
100 AM CDT WED MAR 29 2017

NOTE: "FAIR" INDICATES FEW OR NO CLOUDS BELOW 12,000 FEET WITH NO
SIGNIFICANT WEATHER AND/OR OBSTRUCTIONS TO VISIBILITY.

* THESE STATIONS ARE NOT UNDER NWS QUALITY CONTROL. THEY ALSO MAY NOT
  REPORT WEATHER SUCH AS PRECIPITATION OR FOG.

ILZ001-002-007-009-015-016-024-290700-
NORTHWEST ILLINOIS

CITY           SKY/WX    TMP DP  RH WIND       PRES   REMARKS
MOLINE         MOCLDY    37  35  92 E6        30.16F WCI  32
6HR MIN TEMP:  34; 6HR MAX TEMP:  50;

STERLING*      PTCLDY    38  36  92 E13       30.19F WCI  30
SAVANNA*       CLEAR     37  34  91 E7        30.19F WCI  31
$$

ILZ003-004-008-010-011-017-018-290700-
NORTH CENTRAL ILLINOIS

CITY           SKY/WX    TMP DP  RH WIND       PRES   REMARKS
ROCKFORD       CLOUDY    41  36  82 E6        30.24S
6HR MIN TEMP:  39; 6HR MAX TEMP:  53;

FREEPORT*      CLOUDY    36  34  94 E8        30.23R WCI  29
ROCHELLE*      CLOUDY    41  38  91 E7        30.22S
DE KALB*       CLOUDY    41  38  91 E7        30.22S
PERU*          CLOUDY    41  38  87 E13       30.18F
$$

ILZ005-006-012>014-019>023-290700-
NORTHEAST ILLINOIS

CITY           SKY/WX    TMP DP  RH WIND       PRES   REMARKS
CHICAGO-OHARE  FOG       36  34  92 NE9       30.23S VSB 1   WCI  29
6HR MIN TEMP:  36; 6HR MAX TEMP:  43;

CHICAGO-MIDWAY CLOUDY    37  36  96 N8        30.23S FOG     WCI  31
6HR MIN TEMP:  37; 6HR MAX TEMP:  44;

AURORA         CLOUDY    42  37  82 NE8       30.22R
6HR MIN TEMP:  38; 6HR MAX TEMP:  48;

LANSING*       CLOUDY    36  36 100 NE9       30.23S FOG     WCI  29
JOLIET*        CLOUDY    44  40  87 NE9       30.22S
WAUKEGAN       FOG       34  34 100 N5        30.23F VSB 1/4 WCI  30
6HR MIN TEMP:  33; 6HR MAX TEMP:  35;

DUPAGE AIRPORT CLOUDY    38  38 100 E7        30.22R WCI  33
6HR MIN TEMP:  38; 6HR MAX TEMP:  42;

KANKAKEE*      CLOUDY    42  40  91 NE8       30.20F
WHEELING       FOG       35  35 100 N5        30.25S VSB 1/2 WCI  31
6HR MIN TEMP:  34; 6HR MAX TEMP:  40;

MORRIS*        CLOUDY    43  39  85 E7        30.20F
ROMEOVILLE*    CLOUDY    40  39  97 E14       30.22S
NORTHERLY ISL    N/A     34  33  96 MISG        N/A
$$

LMZ740>746-290700-
SOUTHERN LAKE MICHIGAN

STATION/POSITION SKY/WX   TEMP    WIND        PRES    VSBY  WAVE
                          AIR SEA DIR/SP/G                  HT/PER
                          (F)     (DEG/KT/KT) (MB)    (MI)  (FT/S)
HARRISON CRIB              35      20/ 10/ 11   N/A
BURNHAM HARBOR             34      20/  8/ 11   N/A
CALUMET HARBOR                     20/  8/ 11 1023.2S
BURNS HARBOR               35      40/ 11/ 13 1023.7S
MICHIGAN CITY              35      30/ 11/ 12   N/A
$$

ILZ025>027-034>036-040-047-049-050-058-095>099-290700-
WEST-CENTRAL ILLINOIS

CITY           SKY/WX    TMP DP  RH WIND       PRES   REMARKS
QUINCY         CLOUDY    49  44  83 E9        30.12R
GALESBURG*     CLEAR     40  38  93 NE5       30.14S
MACOMB*        CLOUDY    44  41  90 E8        30.16S
JACKSONVILLE*  CLOUDY    47  44  88 E13       30.13R
PITTSFIELD*    CLOUDY    50  46  88 E5        30.13R
$$

ILZ028>032-037-038-041>044-048-051>054-059>061-290700-
CENTRAL ILLINOIS

CITY           SKY/WX    TMP DP  RH WIND       PRES   REMARKS
PONTIAC        CLOUDY    43  42  97 NE8       30.18F
BLOOMINGTON    CLOUDY    41  39  93 E10       30.17S
DECATUR        CLOUDY    44  39  82 E9        30.13F
PEORIA         CLOUDY    42  39  89 E10       30.15F
6HR MIN TEMP:  43; 6HR MAX TEMP:  50;

LACON*         CLOUDY    40  39  94 E6        30.17F
LINCOLN*       CLOUDY    44  41  89 NE14      30.15S
SPRINGFIELD    CLOUDY    47  41  80 NE12      30.13F
6HR MIN TEMP:  47; 6HR MAX TEMP:  54;

TAYLORVILLE    CLOUDY    46  41  81 E9        30.12F
$$

ILZ033-039-045-046-055>057-062-063-290700-
EAST-CENTRAL ILLINOIS

CITY           SKY/WX    TMP DP  RH WIND       PRES   REMARKS
CHAMPAIGN      CLOUDY    44  39  82 NE12      30.14F
RANTOUL*       CLOUDY    45  42  92 NE10      30.15F
MATTOON        CLEAR     43  41  93 NE8       30.12F
PARIS*         CLOUDY    46  43  89 NE9       30.14F
$$

ILZ079-100>102-290700-
SOUTHWEST ILLINOIS

CITY           SKY/WX    TMP DP  RH WIND       PRES   REMARKS
ALTON          CLOUDY    51  45  80 NE7       30.10R
BELLEVILLE     CLOUDY    54  50  86 NE7       30.08R
CAHOKIA*       CLOUDY    55  46  71 NE7       30.09R
SPARTA*        CLOUDY    54  48  82 E8        30.08R
$$

ILZ064>066-069>071-074>076-080>082-084>086-088>090-092>094-290700-
SOUTH-CENTRAL ILLINOIS

CITY           SKY/WX    TMP DP  RH WIND       PRES   REMARKS
CARBONDALE     CLEAR     49  49 100 E3        30.05F
6HR MIN TEMP:  48; 6HR MAX TEMP:  57;

CAIRO*         CLEAR     52  50  92 NE6       30.04F
EFFINGHAM*     PTCLDY    47  43  87 N6        30.11F
MARION         CLEAR     48  46  93 NE3       30.07S
MT. VERNON     CLEAR     52  47  83 NE8       30.07F
CENTRALIA*     CLOUDY    53  48  83 NE7       30.08R
SALEM*         PTCLDY    52  46  80 E8        30.08F
METROPOLIS*    CLEAR     52  50  95 CALM      30.05F
$$

ILZ067-068-072-073-078-083-087-091-290700-
SOUTHEAST ILLINOIS

CITY           SKY/WX    TMP DP  RH WIND       PRES   REMARKS
LAWRENCEVILLE  CLEAR     50  47  89 NE10      30.11F
FLORA*         CLEAR     50  46  84 NE9       30.10F
FAIRFIELD*     CLEAR     51  47  88 NE6       30.07F
HARRISBURG*    MOCLDY    53  50  91 NE6       30.07F
ROBINSON*      MOCLDY    49  45  87 NE9       30.12F
CARMI*         MOCLDY    50  49  95 NE6       30.07F
$$

ABBREVIATIONS USED IN REMARKS
   TC - TEMPERATURE IN CELSIUS
  WCI - WIND CHILL INDEX
   HX - HEAT INDEX
  VSB - VISIBILITY
$$





USA.gov is the U.S. government's official web portal to all federal, state and local government web resources and services.